| time (UTC) | temp C | wind direction | speed KPH | gust KPH | rain 1hr cm | rain 24hr cm | rain mn cm | humidity % | barometer mb |
| 20260508131854 | 10 | 264 | 3.2 | 12.9 | 0.00 | 0.00 | 0.00 | 58 | 1017.2 |
| 20260508131346 | 10 | 233 | 6.4 | 12.9 | 0.00 | 0.00 | 0.00 | 58 | 1017.2 |
| 20260508130837 | 10 | 271 | 3.2 | 11.3 | 0.00 | 0.00 | 0.00 | 62 | 1017.2 |
| 20260508130329 | 10 | 245 | 4.8 | 11.3 | 0.00 | 0.00 | 0.00 | 62 | 1017.3 |
| 20260508125903 | 9 | 245 | 4.8 | 11.3 | 0.00 | 0.00 | 0.00 | 64 | 1017.2 |
| 20260508125354 | 8 | 233 | 4.8 | 11.3 | 0.00 | 0.00 | 0.00 | 69 | 1017.2 |
| 20260508123859 | 7 | 229 | 3.2 | 11.3 | 0.00 | 0.00 | 0.00 | 75 | 1017.1 |
| 20260508123335 | 6 | 290 | 4.8 | 8.0 | 0.00 | 0.00 | 0.00 | 80 | 1017.0 |
| 20260508122828 | 5 | 161 | 1.6 | 3.2 | 0.00 | 0.00 | 0.00 | 86 | 1017.0 |
| 20260508122402 | 4 | 161 | 0.0 | 3.2 | 0.00 | 0.00 | 0.00 | 88 | 1017.0 |
| 20260508121854 | 3 | 161 | 0.0 | 1.6 | 0.00 | 0.00 | 0.00 | 89 | 1017.0 |
| 20260508120903 | 2 | 131 | 0.0 | 1.6 | 0.00 | 0.00 | 0.00 | 94 | 1016.9 |
| 20260508115813 | 1 | 192 | 0.0 | 1.6 | 0.00 | 0.00 | 0.00 | 98 | 1016.8 |
| 20260508115403 | 1 | 192 | 0.0 | 0.0 | 0.00 | 0.00 | 0.00 | 98 | 1016.9 |
| 20260508114839 | 1 | 192 | 0.0 | 1.6 | 0.00 | 0.00 | 0.00 | 98 | 1016.8 |
| 20260508114333 | 0 | 192 | 0.0 | 4.8 | 0.00 | 0.00 | 0.00 | 98 | 1016.7 |
| 20260508113825 | 0 | 192 | 1.6 | 4.8 | 0.00 | 0.00 | 0.00 | 98 | 1016.6 |
| 20260508112854 | 0 | 192 | 0.0 | 6.4 | 0.00 | 0.00 | 0.00 | 98 | 1016.5 |
| 20260508112347 | 0 | 192 | 1.6 | 6.4 | 0.00 | 0.00 | 0.00 | 98 | 1016.5 |
| 20260508110849 | 0 | 175 | 0.0 | 0.0 | 0.00 | 0.00 | 0.00 | 97 | 1016.4 |
| 20260508110326 | 0 | 175 | 0.0 | 4.8 | 0.00 | 0.00 | 0.00 | 97 | 1016.3 |
| 20260508105335 | -1 | 243 | 0.0 | 1.6 | 0.00 | 0.00 | 0.00 | 97 | 1016.3 |
| 20260508104828 | -1 | 243 | 0.0 | 1.6 | 0.00 | 0.00 | 0.00 | 97 | 1016.2 |
| 20260508104401 | -1 | 242 | 0.0 | 0.0 | 0.00 | 0.00 | 0.00 | 96 | 1016.2 |
| 20260508103855 | -1 | 242 | 0.0 | 3.2 | 0.00 | 0.00 | 0.00 | 96 | 1016.1 |
| 20260508103348 | -1 | 242 | 0.0 | 4.8 | 0.00 | 0.00 | 0.00 | 96 | 1016.1 |
| 20260508102826 | -1 | 242 | 1.6 | 4.8 | 0.00 | 0.00 | 0.00 | 96 | 1016.1 |
| 20260508101833 | 0 | 242 | 0.0 | 1.6 | 0.00 | 0.00 | 0.00 | 96 | 1016.0 |
| 20260508101407 | 0 | 242 | 0.0 | 1.6 | 0.00 | 0.00 | 0.00 | 96 | 1016.0 |
| 20260508100857 | 0 | 242 | 0.0 | 1.6 | 0.00 | 0.00 | 0.00 | 97 | 1016.0 |
| 20260508100351 | 0 | 242 | 0.0 | 4.8 | 0.00 | 0.00 | 0.00 | 97 | 1015.9 |
| 20260508095843 | 0 | 242 | 0.0 | 1.6 | 0.00 | 0.00 | 0.00 | 96 | 1015.9 |
| 20260508095337 | 0 | 242 | 0.0 | 3.2 | 0.00 | 0.03 | 0.00 | 96 | 1015.9 |
| 20260508094814 | 0 | 242 | 0.0 | 3.2 | 0.00 | 0.03 | 0.00 | 96 | 1015.8 |
| 20260508094404 | 0 | 242 | 1.6 | 4.8 | 0.00 | 0.03 | 0.00 | 96 | 1015.8 |
| 20260508093840 | 0 | 242 | 1.6 | 4.8 | 0.00 | 0.03 | 0.00 | 95 | 1015.7 |
| 20260508093333 | 0 | 261 | 0.0 | 0.0 | 0.00 | 0.03 | 0.00 | 95 | 1015.7 |
| 20260508092827 | 0 | 261 | 0.0 | 0.0 | 0.00 | 0.03 | 0.00 | 95 | 1015.7 |
| 20260508092400 | 0 | 261 | 0.0 | 0.0 | 0.00 | 0.03 | 0.00 | 95 | 1015.7 |
| 20260508091850 | 0 | 261 | 0.0 | 0.0 | 0.00 | 0.03 | 0.00 | 95 | 1015.6 |
| 20260508091343 | 0 | 261 | 0.0 | 0.0 | 0.00 | 0.03 | 0.00 | 95 | 1015.6 |
| 20260508085831 | 0 | 261 | 0.0 | 0.0 | 0.00 | 0.03 | 0.00 | 95 | 1015.4 |
| 20260508085404 | 0 | 261 | 0.0 | 3.2 | 0.00 | 0.03 | 0.00 | 95 | 1015.4 |
| 20260508084333 | 0 | 327 | 0.0 | 1.6 | 0.00 | 0.03 | 0.00 | 94 | 1015.3 |
| 20260508083826 | 0 | 327 | 0.0 | 0.0 | 0.00 | 0.03 | 0.00 | 94 | 1015.4 |
| 20260508083319 | 0 | 327 | 0.0 | 0.0 | 0.00 | 0.03 | 0.00 | 94 | 1015.3 |
| 20260508082812 | 0 | 327 | 0.0 | 0.0 | 0.00 | 0.03 | 0.00 | 94 | 1015.2 |
| 20260508082406 | 0 | 327 | 0.0 | 0.0 | 0.00 | 0.03 | 0.00 | 94 | 1015.3 |
| 20260508081858 | 0 | 327 | 0.0 | 0.0 | 0.00 | 0.03 | 0.00 | 94 | 1015.3 |
| 20260508080848 | 0 | 327 | 0.0 | 0.0 | 0.00 | 0.03 | 0.00 | 94 | 1015.3 |
| 20260508080342 | 0 | 327 | 0.0 | 0.0 | 0.00 | 0.03 | 0.00 | 93 | 1015.3 |
| 20260508075835 | 0 | 327 | 0.0 | 0.0 | 0.00 | 0.03 | 0.00 | 93 | 1015.4 |
| 20260508075329 | 0 | 327 | 0.0 | 0.0 | 0.00 | 0.03 | 0.00 | 94 | 1015.4 |
| 20260508074901 | 0 | 327 | 0.0 | 0.0 | 0.00 | 0.03 | 0.00 | 94 | 1015.3 |
| 20260508074354 | 0 | 327 | 0.0 | 0.0 | 0.00 | 0.03 | 0.00 | 94 | 1015.3 |
| 20260508073346 | 0 | 327 | 0.0 | 0.0 | 0.00 | 0.03 | 0.00 | 93 | 1015.2 |
| 20260508072321 | 0 | 327 | 0.0 | 0.0 | 0.00 | 0.03 | 0.00 | 93 | 1015.2 |
| 20260508071854 | 0 | 327 | 0.0 | 0.0 | 0.00 | 0.03 | 0.00 | 93 | 1015.2 |
| 20260508071347 | 0 | 327 | 0.0 | 0.0 | 0.00 | 0.03 | 0.00 | 92 | 1015.2 |
| 20260508070837 | 0 | 327 | 0.0 | 0.0 | 0.00 | 0.03 | 0.00 | 92 | 1015.2 |
| 20260508070330 | 0 | 327 | 0.0 | 1.6 | 0.00 | 0.03 | 0.00 | 92 | 1015.2 |
| 20260508065903 | 0 | 327 | 0.0 | 3.2 | 0.00 | 0.03 | 0.00 | 92 | 1015.2 |
| 20260508065357 | 1 | 327 | 0.0 | 3.2 | 0.00 | 0.03 | 0.00 | 91 | 1015.2 |
| 20260508064849 | 1 | 327 | 0.0 | 0.0 | 0.00 | 0.03 | 0.00 | 91 | 1015.2 |
| 20260508064326 | 1 | 327 | 0.0 | 1.6 | 0.00 | 0.03 | 0.00 | 91 | 1015.3 |
| 20260508063819 | 1 | 327 | 0.0 | 0.0 | 0.00 | 0.03 | 0.00 | 91 | 1015.3 |
| 20260508063313 | 1 | 327 | 0.0 | 0.0 | 0.00 | 0.03 | 0.00 | 90 | 1015.3 |
| 20260508062906 | 1 | 327 | 0.0 | 1.6 | 0.00 | 0.03 | 0.00 | 89 | 1015.3 |
| 20260508062359 | 1 | 327 | 0.0 | 1.6 | 0.00 | 0.03 | 0.00 | 89 | 1015.5 |
| 20260508061853 | 1 | 327 | 0.0 | 0.0 | 0.00 | 0.03 | 0.00 | 89 | 1015.4 |
| 20260508061345 | 1 | 327 | 0.0 | 0.0 | 0.00 | 0.03 | 0.00 | 88 | 1015.4 |
| 20260508060821 | 1 | 327 | 0.0 | 0.0 | 0.00 | 0.03 | 0.00 | 87 | 1015.4 |
| 20260508060314 | 2 | 327 | 0.0 | 0.0 | 0.00 | 0.03 | 0.00 | 86 | 1015.4 |
| 20260508055828 | 2 | 327 | 0.0 | 0.0 | 0.00 | 0.03 | 0.00 | 86 | 1015.5 |
| 20260508055320 | 2 | 327 | 0.0 | 1.6 | 0.00 | 0.05 | 0.00 | 85 | 1015.5 |
| 20260508054328 | 2 | 327 | 0.0 | 1.6 | 0.00 | 0.05 | 0.00 | 84 | 1015.4 |
| 20260508053821 | 3 | 327 | 0.0 | 4.8 | 0.00 | 0.05 | 0.00 | 83 | 1015.3 |
| 20260508053314 | 3 | 327 | 0.0 | 4.8 | 0.00 | 0.05 | 0.00 | 81 | 1015.3 |
| 20260508052831 | 3 | 5 | 0.0 | 1.6 | 0.00 | 0.05 | 0.00 | 81 | 1015.3 |
| 20260508052324 | 3 | 5 | 0.0 | 1.6 | 0.00 | 0.05 | 0.00 | 79 | 1015.2 |
| 20260508051332 | 3 | 5 | 0.0 | 3.2 | 0.00 | 0.05 | 0.00 | 79 | 1015.2 |
| 20260508045815 | 3 | 349 | 1.6 | 4.8 | 0.00 | 0.05 | 0.00 | 79 | 1015.1 |
| 20260508045328 | 3 | 10 | 1.6 | 3.2 | 0.00 | 0.08 | 0.00 | 79 | 1014.9 |
| 20260508044820 | 4 | 355 | 0.0 | 3.2 | 0.00 | 0.08 | 0.00 | 79 | 1015.0 |
| 20260508044413 | 4 | 355 | 0.0 | 3.2 | 0.00 | 0.08 | 0.00 | 79 | 1015.0 |
| 20260508043820 | 4 | 355 | 0.0 | 4.8 | 0.00 | 0.08 | 0.00 | 79 | 1014.9 |
| 20260508042812 | 4 | 309 | 0.0 | 4.8 | 0.00 | 0.08 | 0.00 | 79 | 1015.0 |
| 20260508042317 | 5 | 309 | 0.0 | 4.8 | 0.00 | 0.08 | 0.00 | 78 | 1014.9 |
| 20260508041813 | 5 | 359 | 0.0 | 4.8 | 0.00 | 0.08 | 0.00 | 77 | 1014.9 |
| 20260508041326 | 5 | 18 | 0.0 | 4.8 | 0.00 | 0.08 | 0.00 | 76 | 1015.0 |
| 20260508040818 | 5 | 18 | 0.0 | 0.0 | 0.00 | 0.08 | 0.00 | 76 | 1014.9 |
| 20260508040312 | 5 | 18 | 0.0 | 4.8 | 0.00 | 0.08 | 0.00 | 76 | 1014.9 |
| 20260508035845 | 5 | 11 | 1.6 | 4.8 | 0.00 | 0.08 | 0.00 | 76 | 1014.8 |
| 20260508035338 | 5 | 360 | 0.0 | 3.2 | 0.00 | 0.10 | 0.08 | 77 | 1014.8 |
| 20260508034832 | 5 | 345 | 0.0 | 3.2 | 0.00 | 0.10 | 0.08 | 78 | 1014.7 |
| 20260508034324 | 5 | 12 | 1.6 | 4.8 | 0.00 | 0.10 | 0.08 | 78 | 1014.6 |
| 20260508033351 | 5 | 65 | 1.6 | 4.8 | 0.00 | 0.10 | 0.08 | 78 | 1014.6 |
| 20260508032829 | 5 | 280 | 1.6 | 4.8 | 0.00 | 0.10 | 0.08 | 78 | 1014.7 |
| 20260508032322 | 5 | 238 | 0.0 | 8.0 | 0.00 | 0.10 | 0.08 | 78 | 1014.8 |
| 20260508031815 | 6 | 318 | 0.0 | 8.0 | 0.00 | 0.10 | 0.08 | 78 | 1014.7 |
| 20260508030831 | 6 | 224 | 1.6 | 6.4 | 0.00 | 0.10 | 0.08 | 78 | 1014.6 |
| 20260508025313 | 6 | 37 | 1.6 | 6.4 | 0.00 | 0.20 | 0.08 | 78 | 1014.4 |
| 20260508024342 | 6 | 251 | 1.6 | 4.8 | 0.00 | 0.20 | 0.08 | 78 | 1014.2 |
| 20260508023818 | 6 | 311 | 0.0 | 6.4 | 0.00 | 0.20 | 0.08 | 78 | 1014.2 |
| 20260508023351 | 6 | 311 | 0.0 | 6.4 | 0.00 | 0.20 | 0.08 | 78 | 1014.3 |
| 20260508022400 | 6 | 226 | 1.6 | 8.0 | 0.00 | 0.20 | 0.08 | 77 | 1014.2 |
| 20260508021852 | 6 | 296 | 1.6 | 8.0 | 0.00 | 0.20 | 0.08 | 77 | 1014.0 |
| 20260508021345 | 6 | 32 | 1.6 | 8.0 | 0.00 | 0.20 | 0.08 | 77 | 1014.0 |
| 20260508020837 | 6 | 309 | 1.6 | 4.8 | 0.00 | 0.20 | 0.08 | 77 | 1013.9 |
| 20260508020313 | 6 | 243 | 0.0 | 4.8 | 0.00 | 0.20 | 0.08 | 77 | 1013.8 |
| 20260508015903 | 6 | 243 | 0.0 | 4.8 | 0.00 | 0.20 | 0.08 | 77 | 1013.7 |
| 20260508015340 | 6 | 295 | 1.6 | 4.8 | 0.00 | 0.30 | 0.08 | 78 | 1013.7 |
| 20260508014834 | 7 | 244 | 0.0 | 3.2 | 0.00 | 0.30 | 0.08 | 77 | 1013.7 |
| 20260508014326 | 7 | 244 | 0.0 | 4.8 | 0.00 | 0.30 | 0.08 | 77 | 1013.6 |
| 20260508013355 | 7 | 252 | 0.0 | 3.2 | 0.00 | 0.30 | 0.08 | 77 | 1013.5 |
| 20260508012847 | 7 | 309 | 1.6 | 3.2 | 0.00 | 0.30 | 0.08 | 77 | 1013.5 |
| 20260508012341 | 7 | 326 | 0.0 | 4.8 | 0.00 | 0.30 | 0.08 | 76 | 1013.4 |
| 20260508011818 | 7 | 352 | 0.0 | 4.8 | 0.00 | 0.30 | 0.08 | 76 | 1013.3 |
| 20260508011352 | 7 | 258 | 1.6 | 8.0 | 0.00 | 0.30 | 0.08 | 76 | 1013.2 |
| 20260508010844 | 7 | 311 | 1.6 | 8.0 | 0.00 | 0.30 | 0.08 | 76 | 1013.1 |
| 20260508010337 | 7 | 276 | 0.0 | 9.7 | 0.00 | 0.30 | 0.08 | 75 | 1013.1 |
| 20260508005830 | 7 | 266 | 1.6 | 9.7 | 0.00 | 0.30 | 0.08 | 75 | 1013.0 |
| 20260508004839 | 8 | 8 | 1.6 | 8.0 | 0.00 | 0.33 | 0.08 | 74 | 1013.0 |
| 20260508004332 | 8 | 29 | 0.0 | 4.8 | 0.00 | 0.33 | 0.08 | 72 | 1013.0 |
| 20260508003905 | 8 | 29 | 1.6 | 4.8 | 0.00 | 0.33 | 0.08 | 72 | 1012.9 |
| 20260508002858 | 8 | 72 | 0.0 | 4.8 | 0.00 | 0.33 | 0.08 | 71 | 1013.0 |
| 20260508002350 | 9 | 30 | 0.0 | 9.7 | 0.00 | 0.33 | 0.08 | 70 | 1012.8 |
| 20260508001320 | 9 | 7 | 3.2 | 16.1 | 0.00 | 0.33 | 0.08 | 68 | 1012.7 |
| 20260508000346 | 9 | 327 | 4.8 | 12.9 | 0.00 | 0.33 | 0.08 | 68 | 1012.5 |
| 20260507235840 | 10 | 229 | 6.4 | 12.9 | 0.00 | 0.33 | 0.08 | 68 | 1012.5 |
| 20260507235317 | 10 | 49 | 3.2 | 11.3 | 0.00 | 0.48 | 0.08 | 69 | 1012.5 |
| 20260507234906 | 10 | 264 | 3.2 | 9.7 | 0.00 | 0.48 | 0.08 | 68 | 1012.6 |
| 20260507234343 | 10 | 32 | 0.0 | 11.3 | 0.00 | 0.48 | 0.08 | 69 | 1012.5 |
| 20260507233837 | 10 | 359 | 4.8 | 14.5 | 0.00 | 0.48 | 0.08 | 68 | 1012.5 |
| 20260507233329 | 10 | 283 | 6.4 | 19.3 | 0.00 | 0.48 | 0.08 | 68 | 1012.4 |
| 20260507232902 | 10 | 110 | 3.2 | 11.3 | 0.00 | 0.48 | 0.08 | 67 | 1012.5 |
| 20260507232355 | 10 | 226 | 3.2 | 11.3 | 0.00 | 0.48 | 0.08 | 66 | 1012.5 |
| 20260507231848 | 11 | 306 | 6.4 | 12.9 | 0.00 | 0.48 | 0.08 | 66 | 1012.4 |
| 20260507231327 | 11 | 335 | 6.4 | 16.1 | 0.00 | 0.48 | 0.08 | 66 | 1012.4 |
| 20260507230913 | 11 | 222 | 9.7 | 16.1 | 0.00 | 0.48 | 0.08 | 64 | 1012.4 |
| 20260507230401 | 11 | 23 | 1.6 | 14.5 | 0.00 | 0.48 | 0.08 | 67 | 1012.3 |
| 20260507225839 | 11 | 229 | 4.8 | 16.1 | 0.00 | 0.48 | 0.08 | 67 | 1012.2 |
| 20260507225332 | 11 | 360 | 6.4 | 19.3 | 0.00 | 0.48 | 0.08 | 67 | 1012.3 |
| 20260507224904 | 11 | 34 | 6.4 | 19.3 | 0.00 | 0.48 | 0.08 | 70 | 1012.3 |
| 20260507223832 | 11 | 160 | 3.2 | 9.7 | 0.00 | 0.48 | 0.08 | 69 | 1012.1 |
| 20260507223404 | 11 | 1 | 1.6 | 14.5 | 0.00 | 0.48 | 0.08 | 69 | 1012.1 |
| 20260507222858 | 11 | 355 | 4.8 | 22.5 | 0.00 | 0.48 | 0.08 | 66 | 1012.0 |
| 20260507222335 | 12 | 348 | 8.0 | 22.5 | 0.00 | 0.48 | 0.08 | 65 | 1012.0 |
| 20260507221343 | 12 | 243 | 8.0 | 17.7 | 0.00 | 0.48 | 0.08 | 66 | 1011.9 |
| 20260507220352 | 12 | 291 | 4.8 | 12.9 | 0.00 | 0.48 | 0.08 | 67 | 1011.9 |
| 20260507215845 | 12 | 297 | 4.8 | 12.9 | 0.00 | 0.48 | 0.08 | 67 | 1011.7 |
| 20260507215338 | 12 | 1 | 4.8 | 9.7 | 0.00 | 0.61 | 0.08 | 69 | 1011.6 |
| 20260507214831 | 11 | 213 | 3.2 | 12.9 | 0.00 | 0.61 | 0.08 | 71 | 1011.7 |
| 20260507214405 | 11 | 198 | 6.4 | 12.9 | 0.00 | 0.61 | 0.08 | 68 | 1011.7 |
| 20260507213857 | 11 | 298 | 4.8 | 12.9 | 0.00 | 0.61 | 0.08 | 69 | 1011.7 |
| 20260507213334 | 11 | 303 | 1.6 | 14.5 | 0.00 | 0.61 | 0.08 | 69 | 1011.6 |
| 20260507212341 | 12 | 36 | 6.4 | 16.1 | 0.00 | 0.61 | 0.08 | 68 | 1011.6 |
| 20260507211834 | 12 | 338 | 4.8 | 22.5 | 0.00 | 0.61 | 0.08 | 67 | 1011.4 |
| 20260507211327 | 12 | 354 | 9.7 | 22.5 | 0.00 | 0.61 | 0.08 | 68 | 1011.3 |
| 20260507210335 | 12 | 52 | 4.8 | 16.1 | 0.00 | 0.61 | 0.08 | 70 | 1011.3 |
| 20260507205828 | 12 | 299 | 8.0 | 16.1 | 0.00 | 0.61 | 0.08 | 68 | 1011.3 |
| 20260507204839 | 11 | 271 | 4.8 | 12.9 | 0.00 | 0.64 | 0.08 | 71 | 1011.3 |
| 20260507204333 | 11 | 52 | 3.2 | 11.3 | 0.00 | 0.64 | 0.08 | 71 | 1011.4 |
| 20260507203826 | 11 | 328 | 4.8 | 11.3 | 0.00 | 0.64 | 0.08 | 72 | 1011.4 |
| 20260507202834 | 11 | 20 | 6.4 | 14.5 | 0.00 | 0.64 | 0.08 | 70 | 1011.4 |
| 20260507202328 | 12 | 346 | 4.8 | 19.3 | 0.00 | 0.64 | 0.08 | 70 | 1011.4 |
| 20260507201351 | 12 | 248 | 12.9 | 27.4 | 0.00 | 0.64 | 0.08 | 70 | 1011.3 |
| 20260507200844 | 12 | 234 | 8.0 | 17.7 | 0.00 | 0.64 | 0.08 | 73 | 1011.4 |
| 20260507200338 | 12 | 224 | 4.8 | 20.9 | 0.00 | 0.64 | 0.08 | 75 | 1011.6 |
| 20260507195814 | 11 | 233 | 9.7 | 20.9 | 0.00 | 0.64 | 0.08 | 74 | 1011.7 |
| 20260507195346 | 11 | 293 | 4.8 | 19.3 | 0.00 | 0.64 | 0.08 | 76 | 1011.8 |
| 20260507194838 | 11 | 230 | 9.7 | 19.3 | 0.00 | 0.64 | 0.08 | 73 | 1011.8 |
| 20260507194331 | 11 | 304 | 3.2 | 14.5 | 0.00 | 0.64 | 0.08 | 75 | 1011.8 |
| 20260507193904 | 11 | 309 | 4.8 | 17.7 | 0.00 | 0.64 | 0.08 | 75 | 1011.8 |
| 20260507193357 | 10 | 243 | 8.0 | 17.7 | 0.00 | 0.64 | 0.08 | 75 | 1011.7 |
| 20260507192850 | 10 | 21 | 6.4 | 17.7 | 0.00 | 0.64 | 0.08 | 75 | 1011.8 |
| 20260507192328 | 10 | 252 | 4.8 | 19.3 | 0.00 | 0.64 | 0.08 | 77 | 1011.8 |
| 20260507191336 | 10 | 294 | 4.8 | 17.7 | 0.00 | 0.64 | 0.08 | 76 | 1012.1 |
| 20260507190829 | 10 | 331 | 6.4 | 17.7 | 0.00 | 0.64 | 0.08 | 75 | 1012.1 |
| 20260507190400 | 10 | 317 | 4.8 | 12.9 | 0.00 | 0.64 | 0.08 | 75 | 1012.1 |
| 20260507185853 | 11 | 13 | 8.0 | 14.5 | 0.00 | 0.64 | 0.08 | 74 | 1012.1 |
| 20260507185345 | 11 | 249 | 3.2 | 14.5 | 0.00 | 0.64 | 0.08 | 74 | 1012.0 |
| 20260507184839 | 11 | 316 | 6.4 | 17.7 | 0.00 | 0.64 | 0.08 | 73 | 1012.1 |
| 20260507184315 | 11 | 359 | 8.0 | 19.3 | 0.00 | 0.64 | 0.08 | 72 | 1012.4 |
| 20260507183324 | 11 | 320 | 6.4 | 14.5 | 0.00 | 0.64 | 0.08 | 75 | 1012.3 |
| 20260507182331 | 11 | 359 | 6.4 | 16.1 | 0.00 | 0.64 | 0.08 | 73 | 1012.2 |
| 20260507181905 | 11 | 226 | 6.4 | 16.1 | 0.00 | 0.64 | 0.08 | 73 | 1012.2 |
| 20260507180832 | 11 | 28 | 6.4 | 16.1 | 0.00 | 0.64 | 0.08 | 75 | 1012.1 |
| 20260507180404 | 11 | 12 | 8.0 | 16.1 | 0.00 | 0.64 | 0.08 | 73 | 1012.0 |
| 20260507175858 | 11 | 248 | 6.4 | 16.1 | 0.00 | 0.64 | 0.08 | 73 | 1012.0 |
| 20260507174905 | 10 | 297 | 4.8 | 14.5 | 0.00 | 0.64 | 0.08 | 75 | 1012.1 |
| 20260507174343 | 10 | 352 | 8.0 | 14.5 | 0.00 | 0.64 | 0.08 | 72 | 1012.3 |
| 20260507173835 | 10 | 10 | 4.8 | 12.9 | 0.00 | 0.64 | 0.08 | 73 | 1012.4 |
| 20260507173327 | 10 | 302 | 6.4 | 16.1 | 0.00 | 0.64 | 0.08 | 71 | 1012.4 |
| 20260507172900 | 10 | 7 | 4.8 | 16.1 | 0.00 | 0.64 | 0.08 | 74 | 1012.3 |
| 20260507172352 | 10 | 250 | 4.8 | 16.1 | 0.00 | 0.64 | 0.08 | 76 | 1012.2 |
| 20260507171846 | 10 | 238 | 6.4 | 16.1 | 0.00 | 0.64 | 0.08 | 72 | 1012.3 |
| 20260507170328 | 10 | 28 | 6.4 | 17.7 | 0.00 | 0.64 | 0.08 | 73 | 1012.4 |
| 20260507165900 | 10 | 360 | 8.0 | 17.7 | 0.00 | 0.64 | 0.08 | 73 | 1012.5 |
| 20260507164332 | 10 | 305 | 4.8 | 11.3 | 0.00 | 0.69 | 0.08 | 74 | 1012.5 |
| 20260507163904 | 10 | 299 | 3.2 | 12.9 | 0.00 | 0.69 | 0.08 | 76 | 1012.5 |
| 20260507163357 | 10 | 353 | 3.2 | 9.7 | 0.00 | 0.69 | 0.08 | 76 | 1012.5 |
| 20260507162850 | 10 | 34 | 3.2 | 14.5 | 0.00 | 0.69 | 0.08 | 76 | 1012.4 |
| 20260507162443 | 10 | 1 | 8.0 | 16.1 | 0.00 | 0.69 | 0.08 | 75 | 1012.5 |
| 20260507161851 | 10 | 63 | 8.0 | 16.1 | 0.00 | 0.69 | 0.08 | 77 | 1012.6 |
| 20260507160852 | 9 | 56 | 4.8 | 12.9 | 0.00 | 0.69 | 0.08 | 78 | 1012.6 |
| 20260507160343 | 9 | 360 | 4.8 | 9.7 | 0.00 | 0.69 | 0.08 | 79 | 1012.7 |
| 20260507155835 | 8 | 311 | 3.2 | 9.7 | 0.00 | 0.69 | 0.08 | 83 | 1012.8 |
| 20260507155327 | 8 | 12 | 4.8 | 12.9 | 0.00 | 0.71 | 0.08 | 79 | 1012.7 |
| 20260507154900 | 8 | 26 | 8.0 | 20.9 | 0.00 | 0.71 | 0.08 | 81 | 1012.8 |
| 20260507154353 | 8 | 346 | 8.0 | 20.9 | 0.00 | 0.71 | 0.08 | 80 | 1012.8 |
| 20260507153829 | 8 | 24 | 6.4 | 16.1 | 0.00 | 0.71 | 0.08 | 80 | 1012.8 |
| 20260507153402 | 8 | 18 | 9.7 | 17.7 | 0.00 | 0.71 | 0.08 | 79 | 1012.9 |
| 20260507152856 | 8 | 47 | 11.3 | 17.7 | 0.00 | 0.71 | 0.08 | 78 | 1012.8 |
| 20260507152348 | 8 | 25 | 6.4 | 12.9 | 0.00 | 0.71 | 0.08 | 82 | 1012.7 |
| 20260507151314 | 8 | 360 | 8.0 | 14.5 | 0.00 | 0.71 | 0.08 | 81 | 1012.9 |
| 20260507150908 | 8 | 359 | 8.0 | 14.5 | 0.00 | 0.71 | 0.08 | 81 | 1012.9 |
| 20260507150358 | 8 | 354 | 6.4 | 11.3 | 0.00 | 0.71 | 0.08 | 81 | 1012.9 |
| 20260507145405 | 8 | 4 | 6.4 | 12.9 | 0.00 | 0.74 | 0.08 | 84 | 1012.9 |
| 20260507144843 | 8 | 19 | 4.8 | 12.9 | 0.00 | 0.74 | 0.08 | 84 | 1012.9 |
| 20260507144335 | 8 | 1 | 4.8 | 12.9 | 0.00 | 0.74 | 0.08 | 86 | 1012.9 |
| 20260507143828 | 8 | 359 | 6.4 | 12.9 | 0.00 | 0.74 | 0.08 | 87 | 1012.9 |
| 20260507143402 | 7 | 341 | 1.6 | 9.7 | 0.00 | 0.74 | 0.08 | 88 | 1012.9 |
| 20260507142855 | 7 | 2 | 3.2 | 16.1 | 0.00 | 0.74 | 0.08 | 88 | 1012.9 |
| 20260507142346 | 7 | 14 | 9.7 | 16.1 | 0.00 | 0.74 | 0.08 | 86 | 1013.0 |
| 20260507141326 | 7 | 48 | 4.8 | 16.1 | 0.00 | 0.74 | 0.08 | 89 | 1013.0 |
| 20260507140900 | 6 | 359 | 6.4 | 12.9 | 0.00 | 0.74 | 0.08 | 90 | 1013.2 |
| 20260507140351 | 7 | 22 | 4.8 | 9.7 | 0.00 | 0.74 | 0.08 | 92 | 1013.1 |
| 20260507135844 | 6 | 9 | 3.2 | 12.9 | 0.00 | 0.74 | 0.08 | 92 | 1013.1 |
| 20260507135338 | 6 | 327 | 8.0 | 11.3 | 0.00 | 0.76 | 0.08 | 93 | 1013.0 |
| 20260507134831 | 6 | 352 | 6.4 | 12.9 | 0.00 | 0.76 | 0.08 | 94 | 1013.1 |
| 20260507134325 | 6 | 345 | 4.8 | 12.9 | 0.00 | 0.76 | 0.08 | 95 | 1013.2 |
| 20260507132852 | 6 | 355 | 3.2 | 12.9 | 0.00 | 0.76 | 0.08 | 97 | 1013.3 |
| 20260507132344 | 6 | 20 | 6.4 | 14.5 | 0.00 | 0.76 | 0.08 | 97 | 1013.2 |